Bryce, UT

8:59 AM MDT on August 28, 2016 (GMT -0600)
Bryce Canyon

Weather History for KBCE - January, 2013

Change the Weather History Date:

Tuesday, January 8, 2013

  Actual Average Record
Temperature  
Mean Temperature 22 °F -  
Max Temperature 35 °F 33 °F 57 °F (1969)
Min Temperature 10 °F 7 °F -15 °F (1982)
Degree Days  
Heating Degree Days 42    
Moisture  
Dew Point 14 °F    
Average Humidity 70    
Maximum Humidity 96    
Minimum Humidity 51    
Precipitation  
Precipitation 0.00 in - - ()
Sea Level Pressure  
Sea Level Pressure 30.21 in    
Wind  
Wind Speed 9 mph (NW)    
Max Wind Speed 16 mph    
Max Gust Speed -    
Visibility 10 miles    
Events      
Averages and records for this station are not official NWS values.
T = Trace of Precipitation, MM = Missing Value Source: NWS Daily Summary

Daily Weather History Graph

Daily Weather History Graph

Search for Another Location

Airport or City:

Trip Planner

Search our weather history database for the weather conditions in past years. The results will help you decide how hot, cold, wet, or windy it might be!

Date:

Astronomy

Jan. 08, 2013 Rise Set
Actual Time 7:44 AM MST 5:27 PM MST
Civil Twilight 7:15 AM MST 5:56 PM MST
Nautical Twilight 6:42 AM MST 6:28 PM MST
Astronomical Twilight 6:10 AM MST 7:00 PM MST
Moon 4:21 AM MST (1/8) 2:32 PM MST (1/8)
Length of Visible Light 10h 41m
Length of Day
9h 43m
Waning Crescent, 13% of the Moon is Illuminated
Jan 8
Waning Crescent
Jan 11
New
Jan 18
First Quarter
Jan 26
Full
Feb 3
Last Quarter

Hourly Weather History & Observations

Time (MST) Temp. Windchill Dew Point Humidity Pressure Visibility Wind Dir Wind Speed Gust Speed Precip Events Conditions
12:53 AM 15.1 °F 3.3 °F 3.9 °F 61% 30.09 in 10.0 mi West 9.2 mph - N/A   Clear
1:53 AM 17.1 °F 8.7 °F 3.0 °F 54% 30.08 in 10.0 mi NNE 5.8 mph - N/A   Clear
2:53 AM 15.1 °F 5.2 °F 3.0 °F 59% 30.08 in 10.0 mi NW 6.9 mph - N/A   Clear
3:53 AM 21.9 °F 8.2 °F 6.1 °F 51% 30.08 in 10.0 mi WNW 16.1 mph - N/A   Clear
4:53 AM 19.9 °F 7.9 °F 9.0 °F 62% 30.08 in 10.0 mi WNW 11.5 mph - N/A   Clear
5:53 AM 21.0 °F 9.3 °F 12.0 °F 68% 30.16 in 10.0 mi NW 11.5 mph - N/A   Clear
6:53 AM 19.0 °F 7.5 °F 10.9 °F 71% 30.15 in 10.0 mi WNW 10.4 mph - N/A   Clear
7:53 AM 15.1 °F 0.5 °F 9.0 °F 77% 30.24 in 10.0 mi West 13.8 mph - N/A   Clear
8:53 AM 17.1 °F - 12.0 °F 81% 30.26 in 10.0 mi Calm Calm - N/A   Clear
9:53 AM 19.0 °F - 12.0 °F 74% 30.26 in 10.0 mi Calm Calm - N/A   Clear
10:53 AM 28.0 °F 18.1 °F 17.1 °F 63% 30.22 in 10.0 mi NNW 11.5 mph - N/A   Clear
11:53 AM 32.0 °F 22.5 °F 19.9 °F 61% 30.17 in 10.0 mi North 12.7 mph - N/A   Clear
12:53 PM 34.0 °F 25.0 °F 21.9 °F 61% 30.17 in 10.0 mi North 12.7 mph - N/A   Clear
1:53 PM 35.1 °F 28.6 °F 21.9 °F 59% 30.16 in 10.0 mi WNW 8.1 mph - N/A   Clear
2:53 PM 35.1 °F 26.9 °F 23.0 °F 61% 30.19 in 10.0 mi NNE 11.5 mph - N/A   Clear
3:53 PM 35.1 °F 26.4 °F 23.0 °F 61% 30.17 in 10.0 mi NNE 12.7 mph - N/A   Clear
4:53 PM 30.9 °F 21.2 °F 21.9 °F 69% 30.23 in 10.0 mi North 12.7 mph - N/A   Clear
5:53 PM 26.1 °F 15.6 °F 19.9 °F 78% 30.27 in 10.0 mi NW 11.5 mph - N/A   Clear
6:53 PM 21.9 °F 12.5 °F 17.1 °F 82% 30.32 in 10.0 mi North 8.1 mph - N/A   Clear
7:53 PM 21.0 °F 8.1 °F 17.1 °F 85% 30.36 in 10.0 mi NNE 13.8 mph - N/A   Clear
8:53 PM 17.1 °F - 14.0 °F 88% 30.40 in 10.0 mi Calm Calm - N/A   Clear
10:53 PM 10.9 °F 0.2 °F 10.0 °F 96% 30.40 in 10.0 mi WNW 6.9 mph - N/A   Clear
11:53 PM 10.0 °F -0.9 °F 7.0 °F 87% 30.40 in 10.0 mi West 6.9 mph - N/A   Clear